カタログに戻る

STARLINK-1564

運用中通信VLEO
NORAD 46058·PAYLOAD·🇺🇸 United States

打ち上げ Aug 7, 2020 から Cape Canaveral Space Force Station

Loading…

次のパス (今後24時間)

TLE

最新Source: CelesTrak SupGP

元期: Sep 14, 2026, 20:39 UTC

1 46058C 20055AH  26257.86090278 -.00021865  00000+0 -70294-3 0  2572
2 46058  53.1569 315.1068 0001048  95.3806 347.6428 15.31721747    15

AllMySatでSTARLINK-1564をリアルタイム追跡

Download on the App Store